Miscellaneous Local Product
Issued by NWS Hastings, NE

Home | Current Version | Previous Version | Graphics & Text | Print | Product List | Glossary On
Versions: 1 2 3 4 5 6 7 8 9 10 11 12 13 14 15 16 17 18 19 20 21 22 23 24 25 26 27 28 29 30 31 32 33 34 35 36 37 38 39 40 41 42 43 44 45 46 47 48 49 50
000
AXUS43 KGID 272202
MISGRI

GID CWA HOURLY WEATHER ROUNDUP
NATIONAL WEATHER SERVICE HASTINGS NE
500 PM CDT FRI MAY 27 2016

NOTE: "FAIR" INDICATES FEW OR NO CLOUDS BELOW 12,000 FEET WITH NO
SIGNIFICANT WEATHER AND/OR OBSTRUCTIONS TO VISIBILITY.

...SOUTH CENTRAL NEBRASKA...

CITY           SKY/WX    TMP DP  RH WIND       PRES   REMARKS
GRAND ISLAND   TSTM      69  58  67 E9        29.72F
HASTINGS       CLOUDY    67  58  72 SE6       29.71F
KEARNEY        CLOUDY    66  57  72 NE9       29.74S
ORD            MOSUNNY   71  56  58 N6        29.72F
YORK           CLOUDY    70  59  68 E7        29.72S
AURORA         CLOUDY    70  58  66 SE7       29.72S
LEXINGTON      CLOUDY    67  58  72 E8        29.73F
HOLDREGE       CLOUDY    64  58  80 E8        29.72S
HEBRON         CLOUDY    71  61  70 E7        29.68F

...NEBRASKA PANHANDLE...

CITY           SKY/WX    TMP DP  RH WIND       PRES   REMARKS
CHADRON        CLOUDY    60  45  57 E3        29.85F
ALLIANCE       PTSUNNY   58  48  69 NE9       29.86F
SCOTTSBLUFF    MOSUNNY   59  44  57 MISG      29.87F
SIDNEY         CLOUDY    56  45  66 N12       29.88S

...WESTERN AND NORTH CENTRAL NEBRASKA...

CITY           SKY/WX    TMP DP  RH WIND       PRES   REMARKS
VALENTINE      MOSUNNY   66  47  50 NE15      29.80F
AINSWORTH      CLOUDY    66  52  59 N12       29.78F
ONEILL         CLOUDY    69  58  67 NE6       29.74F
BROKEN BOW     PTSUNNY   69  57  65 NE15      29.73F
IMPERIAL       HVY RAIN  54  52  94 N22       29.79R VSB 3/4
NORTH PLATTE   PTSUNNY   66  54  65 NE16      29.75F
MCCOOK         CLOUDY    62  56  80 E13       29.73S

...EASTERN NEBRASKA...

CITY           SKY/WX    TMP DP  RH WIND       PRES   REMARKS
NORFOLK        SUNNY     75  55  49 N6        29.71F
SO SIOUX CITY  CLOUDY    78  59  51 VRB5      29.69F
TEKAMAH        MOSUNNY   80  53  39 CALM      29.69F
COLUMBUS       PTSUNNY   75  54  46 CALM      29.72S
ALBION         MOSUNNY   74  54  49 CALM      29.72S
OMAHA EPPLEY   PTSUNNY   78  59  51 E5        29.70F
OFFUTT AFB     CLOUDY    76  62  61 NE10      29.68F
MILLARD        PTSUNNY   79  58  48 CALM      29.70F
LINCOLN        CLOUDY    75  61  61 E7        29.70F
NEBRASKA CITY  CLOUDY    74  61  65 E7        29.71F
BEATRICE       CLOUDY    75  62  64 E7        29.69F
FALLS CITY     CLOUDY    77  65  66 E8        29.69F

...NORTHERN KANSAS...

CITY           SKY/WX    TMP DP  RH WIND       PRES   REMARKS
GOODLAND       MOSUNNY   61  54  77 NE14G24   29.73F
HILL CITY      CLOUDY    63  59  87 NE8       29.71F
NORTON         CLOUDY    63  55  77 E8        29.71F
PHILLIPSBURG   CLOUDY    66  61  82 NE6       29.69F
SMITH CENTER   SUNNY     70  63  78 N9        29.69F
BELOIT         PTSUNNY   63  50  63 SE7       29.62F
HAYS           MOSUNNY   48 N/A N/A NE10      29.64F
RUSSELL        MOSUNNY   73  64  73 N10       29.62F
CONCORDIA      MOSUNNY   74  64  71 S9        29.65F
SALINA         PTSUNNY   74  66  76 SE10      29.65S
TOPEKA         CLOUDY    73  67  81 E10       29.69F



USA.gov is the U.S. government's official web portal to all federal, state and local government web resources and services.